Location: Cheyres
(46.8153°N, 6.7877°E)
Time: 19:52:49
(UTC+00:00)

AO-109 - Pass Details

Date: 08 July 2022
Orbit: 469 x 506 km, 60.7° (Epoch: 16 August)

Event Time Altitude Azimuth Distance (km) Brightness Sun altitude
Exits shadow 02:58:22 - 261° (W) 2,065 ? -7.3°
Reaches altitude 10° 02:59:32 10° 269° (W) 1,656 ? -7.1°
Maximum altitude 03:02:42 26° 328° (NNW) 986 ? -6.7°
Drops below altitude 10° 03:05:55 10° 27° (NNE) 1,683 ? -6.3°
Sets 03:08:21 0° 40° (NE) 2,577 ? -6.0°
